Time,TemperatureF,DewpointF,PressureIn,WindDirection,WindDirectionDegrees,WindSpeedMPH,WindSpeedGustMPH,Humidity,HourlyPrecipIn,Conditions,Clouds,dailyrainin,SolarRadiationWatts/m^2,SoftwareType,DateUTC
2013-05-02 00:00:00,70.0,51.0,-100.00,ESE,112,4.0,-999.0,51,-99.99,,,-99.99,0.000000,,2013-05-02 04:00:00,
2013-05-02 00:43:00,70.0,51.0,-100.00,ESE,112,4.0,-999.0,51,-99.99,,,-99.99,0.000000,,2013-05-02 04:43:00,
2013-05-02 00:52:00,70.0,51.0,-100.00,ESE,112,4.0,-999.0,51,-99.99,,,-99.99,0.000000,,2013-05-02 04:52:00,
2013-05-02 01:00:00,68.0,52.0,-100.00,SE,135,4.0,-999.0,56,-99.99,,,-99.99,0.000000,,2013-05-02 05:00:00,
2013-05-02 01:42:00,68.0,52.0,-100.00,SE,135,4.0,-999.0,56,-99.99,,,-99.99,0.000000,,2013-05-02 05:42:00,
2013-05-02 01:52:00,68.0,52.0,-100.00,SE,135,4.0,-999.0,56,-99.99,,,-99.99,0.000000,,2013-05-02 05:52:00,
2013-05-02 04:00:00,64.0,52.0,-100.00,SE,135,4.0,-999.0,65,-99.99,,,-99.99,0.000000,,2013-05-02 08:00:00,
2013-05-02 04:42:00,64.0,52.0,-100.00,SE,135,4.0,-999.0,65,-99.99,,,-99.99,0.000000,,2013-05-02 08:42:00,
2013-05-02 04:52:00,64.0,52.0,-100.00,SE,135,4.0,-999.0,65,-99.99,,,-99.99,0.000000,,2013-05-02 08:52:00,
2013-05-02 05:00:00,63.0,52.0,-100.00,ESE,112,3.0,-999.0,67,-99.99,,,-99.99,0.000000,,2013-05-02 09:00:00,
2013-05-02 05:42:00,63.0,52.0,-100.00,ESE,112,3.0,-999.0,67,-99.99,,,-99.99,0.000000,,2013-05-02 09:42:00,
2013-05-02 05:52:00,63.0,52.0,-100.00,ESE,112,3.0,-999.0,67,-99.99,,,-99.99,0.000000,,2013-05-02 09:52:00,
2013-05-02 06:00:00,62.0,52.0,-100.00,ESE,112,3.0,-999.0,70,-99.99,,,-99.99,0.000000,,2013-05-02 10:00:00,
2013-05-02 06:42:00,62.0,52.0,-100.00,ESE,112,3.0,-999.0,70,-99.99,,,-99.99,0.000000,,2013-05-02 10:42:00,
2013-05-02 06:53:00,62.0,52.0,-100.00,ESE,112,3.0,-999.0,70,-99.99,,,-99.99,0.000000,,2013-05-02 10:53:00,
2013-05-02 07:00:00,61.0,52.0,-100.00,SE,135,1.0,-999.0,73,-99.99,,,-99.99,4.640000,,2013-05-02 11:00:00,
2013-05-02 07:42:00,61.0,52.0,-100.00,SE,135,1.0,-999.0,73,-99.99,,,-99.99,4.640000,,2013-05-02 11:42:00,
2013-05-02 07:52:00,61.0,52.0,-100.00,SE,135,1.0,-999.0,73,-99.99,,,-99.99,4.640000,,2013-05-02 11:52:00,
2013-05-02 09:00:00,66.0,54.0,-100.00,SE,135,2.0,-999.0,65,-99.99,,,-99.99,259.839996,,2013-05-02 13:00:00,
2013-05-02 09:42:00,66.0,54.0,-100.00,SE,135,2.0,-999.0,65,-99.99,,,-99.99,259.839996,,2013-05-02 13:42:00,
2013-05-02 09:52:00,66.0,54.0,-100.00,SE,135,2.0,-999.0,65,-99.99,,,-99.99,259.839996,,2013-05-02 13:52:00,
2013-05-02 10:00:00,70.0,54.0,-100.00,SSE,157,5.0,-999.0,57,-99.99,,,-99.99,440.799988,,2013-05-02 14:00:00,
2013-05-02 10:43:00,70.0,54.0,-100.00,SSE,157,5.0,-999.0,57,-99.99,,,-99.99,440.799988,,2013-05-02 14:43:00,
2013-05-02 10:52:00,70.0,54.0,-100.00,SSE,157,5.0,-999.0,57,-99.99,,,-99.99,440.799988,,2013-05-02 14:52:00,
2013-05-02 13:00:00,75.0,57.0,-100.00,West,270,5.0,-999.0,54,-99.99,,,-99.99,829.400024,,2013-05-02 17:00:00,
2013-05-02 13:42:00,75.0,57.0,-100.00,West,270,5.0,-999.0,54,-99.99,,,-99.99,829.400024,,2013-05-02 17:42:00,
2013-05-02 13:52:00,75.0,57.0,-100.00,West,270,5.0,-999.0,54,-99.99,,,-99.99,829.400024,,2013-05-02 17:52:00,
2013-05-02 14:00:00,71.0,55.0,-100.00,West,270,8.0,-999.0,55,-99.99,,,-99.99,773.719971,,2013-05-02 18:00:00,
2013-05-02 14:42:00,71.0,55.0,-100.00,West,270,8.0,-999.0,55,-99.99,,,-99.99,773.719971,,2013-05-02 18:42:00,
2013-05-02 14:52:00,71.0,55.0,-100.00,West,270,8.0,-999.0,55,-99.99,,,-99.99,773.719971,,2013-05-02 18:52:00,
2013-05-02 15:00:00,69.0,53.0,-100.00,WNW,292,6.0,-999.0,56,-99.99,,,-99.99,541.719971,,2013-05-02 19:00:00,
2013-05-02 15:42:00,69.0,53.0,-100.00,WNW,292,6.0,-999.0,56,-99.99,,,-99.99,541.719971,,2013-05-02 19:42:00,
2013-05-02 15:52:00,69.0,53.0,-100.00,WNW,292,6.0,-999.0,56,-99.99,,,-99.99,541.719971,,2013-05-02 19:52:00,
2013-05-02 16:00:00,61.0,48.0,-100.00,WNW,292,9.0,-999.0,63,-99.99,,,-99.99,585.799988,,2013-05-02 20:00:00,
2013-05-02 16:42:00,61.0,48.0,-100.00,WNW,292,9.0,-999.0,63,-99.99,,,-99.99,585.799988,,2013-05-02 20:42:00,
2013-05-02 16:52:00,61.0,48.0,-100.00,WNW,292,9.0,-999.0,63,-99.99,,,-99.99,585.799988,,2013-05-02 20:52:00,
2013-05-02 17:00:00,56.0,46.0,-100.00,WNW,292,8.0,-999.0,68,-99.99,,,-99.99,462.839996,,2013-05-02 21:00:00,
2013-05-02 17:42:00,56.0,46.0,-100.00,WNW,292,8.0,-999.0,68,-99.99,,,-99.99,462.839996,,2013-05-02 21:42:00,
2013-05-02 17:53:00,56.0,46.0,-100.00,WNW,292,8.0,-999.0,68,-99.99,,,-99.99,462.839996,,2013-05-02 21:53:00,
2013-05-02 18:00:00,59.0,47.0,-100.00,NW,315,7.0,-999.0,62,-99.99,,,-99.99,480.239990,,2013-05-02 22:00:00,
2013-05-02 18:42:00,59.0,47.0,-100.00,NW,315,7.0,-999.0,62,-99.99,,,-99.99,480.239990,,2013-05-02 22:42:00,
2013-05-02 18:53:00,59.0,47.0,-100.00,NW,315,7.0,-999.0,62,-99.99,,,-99.99,480.239990,,2013-05-02 22:53:00,
2013-05-02 19:00:00,58.0,45.0,-100.00,NNW,337,7.0,-999.0,62,-99.99,,,-99.99,298.119995,,2013-05-02 23:00:00,
2013-05-02 19:42:00,58.0,45.0,-100.00,NNW,337,7.0,-999.0,62,-99.99,,,-99.99,298.119995,,2013-05-02 23:42:00,
2013-05-02 19:52:00,58.0,45.0,-100.00,NNW,337,7.0,-999.0,62,-99.99,,,-99.99,298.119995,,2013-05-02 23:52:00,
2013-05-02 21:00:00,50.0,43.0,-100.00,WNW,292,2.0,-999.0,76,-99.99,,,-99.99,6.960000,,2013-05-03 01:00:00,
2013-05-02 21:42:00,50.0,43.0,-100.00,WNW,292,2.0,-999.0,76,-99.99,,,-99.99,6.960000,,2013-05-03 01:42:00,
2013-05-02 21:52:00,50.0,43.0,-100.00,WNW,292,2.0,-999.0,76,-99.99,,,-99.99,6.960000,,2013-05-03 01:52:00,
2013-05-02 23:00:00,43.0,39.0,-100.00,West,270,6.0,-999.0,84,-99.99,,,-99.99,0.000000,,2013-05-03 03:00:00,
2013-05-02 23:43:00,43.0,39.0,-100.00,West,270,6.0,-999.0,84,-99.99,,,-99.99,0.000000,,2013-05-03 03:43:00,
2013-05-02 23:53:00,43.0,39.0,-100.00,West,270,6.0,-999.0,84,-99.99,,,-99.99,0.000000,,2013-05-03 03:53:00,